Regional Weather Roundup
Issued by NWS

Home | Current Version | Previous Version | Text Only | Print | Product List | Glossary On
Versions: 1 2 3 4 5 6 7 8 9 10 11 12 13 14 15 16 17 18 19 20 21 22 23 24 25 26 27 28 29 30 31 32 33 34 35 36 37 38 39 40 41 42 43 44 45 46 47 48 49 50
000
ASCA42 TJSJ 250010
RWRPR
PUERTO RICO/U.S. VIRGIN ISLANDS HOURLY WEATHER ROUNDUP
NATIONAL WEATHER SERVICE SAN JUAN PR
800 PM AST SUN MAY 24 2015

PRZ001-004-250100-
PUERTO RICO

CITY           SKY/WX    TMP DP  RH WIND       PRES   REMARKS
SAN JUAN LMM   PTCLDY    81  73  78 E13       30.07R
AGUADILLA      PTCLDY    79  72  78 E14       30.07R
CEIBA          CLOUDY    81  73  78 NE12      30.08R
$$

PRZ006-007-250100-
U.S. VIRGIN ISLANDS

CITY           SKY/WX    TMP DP  RH WIND       PRES   REMARKS
CHARLOTTE AMA  CLOUDY    81  70  69 E10       30.06R
CHRISTIANSTED  PTCLDY    81  72  74 NE8       30.06R
$$

HOURLY WEATHER ROUNDUP FOR THE NEWS MEDIA

CITY           SKY/WX    TMP DP  RH WIND       PRES   REMARKS
ORLANDO        MOCLDY    80  71  74 NE10      30.17R
NEW YORK       MOCLDY    64  50  60 S20G28    30.25S
NEWARK         MOCLDY    78  41  26 SW13      30.22S
CHICAGO        PTSUNNY   65  61  87 E9        29.93F
HARTFORD       MOCLDY    60  48  64 SW12      30.23R
BOSTON         CLOUDY    73  42  32 SW18      30.17R
DALLAS         PTSUNNY   77  65  66 S10       29.84R
PHILADELPHIA   PTCLDY    77  41  27 SW9       30.26R
LOS ANGELES    MOSUNNY   64  54  69 W9        29.97F
WASHINGTON DC  PTCLDY    76  55  48 S3        30.25R


USA.gov is the U.S. government's official web portal to all federal, state and local government web resources and services.